GFSMA_sfc_temp_111.txt.gz
Temp
70 71 71 71 71 72 73 72 73 73 73 74 74 74 73 74 73 74 76 65 69 73 73 73 73 72 72 71 71 70 70 70 70 69 69 69 69 70 70 70 70 70 70
70 70 69 69 70 71 71 72 72 73 73 74 73 73 74 73 73 73 75 74 66 70 72 74 73 73 72 72 71 70 70 70 69 69 69 69 69 69 69 69 69 69 70
70 70 70 69 70 71 71 71 71 71 72 72 73 73 74 74 73 73 73 74 73 65 69 73 73 73 73 73 73 72 71 70 70 69 69 69 69 68 69 69 69 69 69
71 70 70 70 71 71 71 70 70 70 71 71 72 74 74 72 73 72 72 74 73 74 69 69 71 72 73 73 73 73 72 71 70 70 69 69 69 69 68 68 68 68 68
71 70 70 71 70 69 70 70 69 70 69 70 70 71 72 71 71 71 73 72 72 72 74 68 66 67 69 71 72 73 73 72 71 70 70 69 69 69 69 68 68 68 68
71 71 70 70 70 69 69 68 69 68 70 69 68 69 70 70 70 69 72 72 73 72 73 72 70 70 65 69 70 72 72 72 71 70 70 70 69 69 69 69 69 68 68
70 70 70 70 69 69 69 69 68 68 67 68 68 69 69 68 68 64 67 71 71 72 72 72 72 73 70 65 67 69 70 70 70 70 70 69 69 69 70 70 69 69 68
69 70 69 68 68 68 67 68 68 66 67 67 66 63 63 64 62 62 63 67 67 67 66 67 66 63 61 66 65 63 65 67 69 69 69 69 70 70 69 70 70 69 69
67 67 68 67 67 67 67 67 66 67 65 64 65 64 58 56 58 59 58 59 60 60 61 60 61 60 60 58 59 60 61 64 67 68 69 69 69 70 70 70 70 70 70
67 67 67 67 66 65 65 65 65 64 62 62 63 63 64 64 57 58 58 57 58 58 57 57 57 57 57 55 55 57 59 60 64 67 68 69 69 70 70 71 70 69 69
68 67 67 67 65 64 64 63 62 63 64 64 64 62 62 61 60 58 55 57 56 55 58 55 55 54 53 53 53 57 59 61 64 66 67 68 69 69 69 69 70 71 69
65 66 65 66 66 65 65 65 64 64 64 64 65 65 62 59 58 58 56 57 57 57 55 55 53 53 53 54 55 56 58 61 64 65 66 67 67 66 67 68 69 70 71
64 64 65 65 65 65 65 65 64 63 64 63 64 64 65 64 61 60 57 57 56 59 53 52 53 55 54 56 55 54 56 60 63 66 67 65 63 62 63 64 66 68 70
63 64 64 64 64 65 65 65 63 63 64 64 63 63 63 63 63 63 61 60 57 58 54 55 53 54 54 54 54 54 58 57 60 62 62 61 60 60 60 61 61 64 68
62 63 63 62 63 63 62 62 61 60 62 61 60 59 59 59 59 60 59 58 56 53 54 55 53 51 52 52 51 53 52 55 57 58 58 58 57 58 58 58 58 58 59
61 61 60 60 58 58 59 59 58 57 57 55 57 56 56 57 58 58 59 58 57 55 52 55 53 50 51 50 51 51 51 52 55 56 56 55 56 56 56 57 57 56 56
58 58 58 57 56 55 55 56 56 55 55 55 56 57 56 58 56 57 57 57 55 54 52 46 47 47 46 47 48 48 48 50 52 54 54 54 54 55 55 56 56 57 57
55 55 55 53 53 52 53 53 52 52 53 53 53 54 55 54 54 55 55 54 53 52 50 49 44 44 46 47 48 46 47 48 49 52 54 54 54 54 54 53 54 54 54
52 52 52 51 50 49 50 50 50 50 51 51 50 50 50 50 50 51 51 51 51 49 48 45 42 43 43 45 44 44 44 45 47 50 53 53 52 52 52 51 52 52 51
49 49 49 48 47 47 47 47 47 48 48 48 47 47 47 47 48 49 49 49 48 48 47 45 42 41 42 44 44 40 38 41 41 45 47 48 49 50 50 50 50 49 49
47 47 46 46 46 47 46 46 46 46 46 45 45 45 46 46 46 48 48 48 48 47 46 44 41 41 39 39 40 40 37 36 37 39 41 40 41 43 45 49 47 47 47
45 45 45 45 45 46 48 47 45 44 43 43 43 44 44 44 46 47 48 48 48 46 44 42 40 39 40 40 39 38 35 34 34 40 40 37 39 40 42 45 45 46 47
43 41 42 43 43 45 47 47 44 42 41 41 40 41 43 44 44 45 45 44 43 44 45 45 42 42 41 41 39 37 36 38 37 35 38 37 39 41 41 42 44 46 46
39 39 39 39 40 43 46 47 44 41 41 41 41 41 42 43 43 43 42 41 38 39 40 41 41 43 42 42 41 40 39 35 34 34 37 36 38 39 40 42 41 46 45
37 38 40 40 39 41 44 46 43 41 40 40 41 42 42 42 42 43 39 38 37 37 41 43 43 43 43 43 41 38 35 35 32 33 35 38 35 36 37 38 41 45 44
38 39 39 41 40 40 42 44 44 42 41 40 40 41 41 42 43 43 39 39 37 36 36 36 36 37 38 41 41 38 37 34 32 32 36 36 33 34 33 36 37 39 41

GFSMA_sfc_temp_114.txt.gz
Temp
79 80 80 80 81 82 81 81 81 81 81 82 82 82 82 82 82 83 84 67 70 73 74 73 73 72 72 72 71 70 70 70 70 70 70 70 70 70 70 70 70 70 70
80 80 80 80 80 81 81 81 81 80 80 82 81 81 81 81 82 81 83 79 67 70 73 74 74 73 73 72 72 71 70 70 70 69 69 69 69 69 69 69 69 70 70
79 79 79 78 79 81 80 80 80 81 81 81 80 81 81 82 81 80 81 82 78 65 69 73 73 73 73 73 73 72 71 70 70 70 69 69 69 69 69 69 69 69 69
79 78 78 78 79 79 80 79 79 78 79 79 79 79 80 80 81 81 80 81 79 81 70 69 71 73 73 74 74 73 72 71 70 70 70 69 69 69 69 69 68 68 68
79 79 78 78 79 78 77 77 76 78 76 76 77 78 79 78 78 79 79 79 80 79 80 69 67 68 70 72 74 74 74 73 71 70 70 70 69 69 69 69 68 68 68
79 78 78 78 78 77 76 76 75 76 77 77 75 75 78 77 77 77 78 79 79 78 79 79 78 74 66 69 71 72 73 73 72 71 70 70 70 70 70 69 69 69 68
78 77 78 77 77 76 76 76 75 74 73 74 74 76 76 76 75 75 76 74 75 76 77 79 79 76 74 66 69 70 71 71 71 70 71 70 70 70 70 70 70 69 69
77 77 76 76 76 75 75 74 73 70 74 76 73 72 70 71 73 72 71 71 69 70 72 67 70 72 67 68 67 62 65 68 69 70 70 70 70 70 70 70 70 70 69
74 74 75 74 74 73 71 73 74 73 72 71 70 70 66 66 69 70 68 64 65 67 64 63 63 61 61 60 60 60 60 62 66 69 70 70 70 70 70 70 70 70 70
72 72 70 71 72 72 71 71 72 70 64 63 67 69 70 69 65 64 68 67 65 62 59 60 58 61 59 57 56 55 57 60 63 67 69 69 70 70 71 71 71 70 69
72 71 71 73 71 70 66 64 63 64 66 67 67 66 65 66 66 61 56 58 58 57 58 62 58 56 56 56 55 55 58 60 64 66 68 69 69 70 70 70 70 70 71
66 67 67 68 67 65 65 67 69 67 67 68 68 67 66 63 61 61 57 59 59 59 58 58 57 58 55 54 55 56 57 59 61 66 67 68 67 66 66 66 67 68 70
66 65 66 65 65 65 66 68 69 67 65 65 66 67 69 69 69 66 64 63 60 59 57 60 62 57 55 56 57 55 56 58 61 64 67 66 63 63 63 64 64 66 68
65 65 64 65 65 66 68 67 65 65 66 66 67 67 69 68 66 64 61 62 60 64 65 64 64 62 61 61 59 54 58 56 59 63 64 62 61 60 60 61 61 62 66
63 64 64 64 65 67 68 68 67 67 68 66 65 64 63 63 61 62 62 61 59 56 58 66 63 60 60 59 57 58 58 55 57 58 58 58 58 58 58 58 59 59 61
62 63 63 65 65 66 66 67 66 65 65 64 63 63 61 61 62 63 62 60 59 56 54 63 62 59 58 56 55 57 57 53 55 55 55 55 56 57 57 57 57 57 57
62 63 63 63 62 63 64 64 63 63 63 61 62 62 61 62 62 62 61 60 57 58 54 54 55 54 50 53 52 53 52 53 54 54 54 54 55 55 56 56 56 56 57
63 62 62 61 62 62 64 63 61 62 62 61 60 61 60 59 60 59 60 58 56 57 52 51 50 48 49 51 51 49 48 50 51 52 53 54 54 54 54 54 54 54 55
60 61 61 59 58 59 60 61 61 60 60 59 58 58 57 57 56 55 55 53 54 53 53 50 48 46 46 47 45 45 45 45 46 48 52 53 53 53 52 52 52 52 52
59 59 59 58 57 57 57 57 57 57 56 55 54 54 54 54 54 54 54 55 53 52 51 48 46 45 46 46 45 42 40 42 41 44 46 49 51 51 51 51 51 50 50
56 56 55 55 55 55 54 54 54 54 53 52 51 51 51 49 46 50 52 52 50 49 50 47 44 43 42 41 41 40 38 37 38 39 40 40 43 46 48 49 47 47 48
54 54 53 53 53 52 47 49 52 51 50 50 49 50 50 46 48 47 48 47 48 48 45 44 43 41 43 42 40 38 36 35 34 39 37 38 42 42 43 47 47 47 47
51 51 51 52 51 51 48 47 47 49 48 47 46 47 48 49 48 50 48 46 46 44 44 43 42 44 43 44 40 37 37 37 37 37 40 39 39 40 43 47 45 46 47
47 47 46 48 48 49 47 46 45 48 48 47 47 47 48 49 49 47 47 46 46 46 43 42 42 43 44 44 42 40 39 36 35 35 37 35 39 41 44 46 43 46 46
43 43 45 46 47 47 46 46 47 48 47 47 47 48 48 48 45 44 44 41 45 45 43 42 41 42 44 44 42 38 35 35 33 34 35 36 37 40 41 43 45 46 46
42 45 44 46 46 48 45 46 47 49 47 47 47 47 42 45 44 44 44 43 43 44 42 39 38 38 39 41 40 37 37 34 34 33 35 35 35 38 34 40 42 45 44

GFSMA_sfc_temp_117.txt.gz
Temp
83 76 75 76 80 82 81 81 82 81 82 83 83 83 82 82 82 81 77 68 71 73 74 73 73 73 72 72 71 71 70 70 70 70 70 70 70 70 70 70 70 70 70
83 78 75 78 81 82 82 81 81 81 81 82 82 82 81 81 82 81 81 73 69 70 73 74 74 73 73 72 72 71 70 70 70 70 70 69 69 69 69 69 69 70 70
81 81 81 81 81 82 82 81 81 81 80 81 80 81 81 82 81 80 80 80 72 66 70 73 74 74 73 73 73 72 71 71 70 70 70 69 69 69 69 69 69 69 69
82 80 80 80 81 81 80 79 79 77 78 77 78 78 79 79 80 81 80 80 79 79 69 70 71 73 73 74 74 74 73 71 71 70 70 70 69 69 69 69 69 68 69
81 80 80 80 80 79 79 78 77 78 76 76 76 77 77 77 78 79 80 80 79 78 79 67 67 68 70 72 74 74 74 72 71 71 70 70 70 69 69 69 69 68 68
80 79 79 79 79 77 77 76 76 77 76 76 76 76 76 76 78 77 78 79 79 78 77 77 72 70 66 69 71 72 72 73 73 70 70 70 70 70 70 70 69 69 69
79 79 79 78 78 76 77 77 76 74 73 75 73 73 75 77 76 76 77 77 77 76 77 76 74 73 69 67 68 68 70 71 71 71 70 71 70 70 70 70 70 69 69
78 78 78 77 77 76 75 75 75 72 72 74 71 71 67 70 73 74 73 72 72 69 67 66 67 69 69 66 61 62 63 65 69 70 71 70 70 70 70 70 70 70 70
77 77 76 76 76 76 74 74 73 72 70 73 73 69 65 63 68 70 69 67 65 66 64 63 64 63 61 59 60 59 59 60 62 67 70 70 70 70 71 70 70 69 69
75 75 74 74 74 72 72 71 73 73 70 64 67 69 70 69 62 62 68 68 68 66 64 62 60 60 59 57 56 56 57 58 62 65 68 70 70 70 71 71 71 70 69
73 72 72 70 69 71 72 71 69 66 66 66 67 67 66 66 67 62 60 60 61 63 63 59 59 56 56 56 56 57 57 60 62 64 66 69 70 70 70 69 69 69 70
69 69 70 70 69 70 68 66 63 65 68 68 69 68 66 64 62 62 59 61 61 65 64 62 61 60 60 59 56 56 57 59 61 63 64 65 69 67 66 66 66 66 67
66 66 67 67 67 67 67 65 64 65 67 67 67 67 67 67 68 66 63 60 60 64 61 61 61 62 60 58 57 55 56 58 59 63 64 65 64 63 63 64 64 64 65
67 68 67 66 64 64 65 65 65 66 65 64 65 65 67 67 66 65 62 60 57 61 63 64 63 61 59 59 58 55 58 57 58 62 64 62 61 60 60 61 61 61 62
65 66 65 65 65 65 64 65 64 63 64 66 66 65 65 64 64 64 63 61 59 55 57 62 61 60 60 59 57 58 58 55 57 58 58 58 57 57 57 58 59 59 59
63 63 63 63 63 63 63 65 64 66 64 63 63 63 63 62 62 62 61 60 59 55 53 61 60 58 58 57 56 56 56 53 55 55 55 55 55 55 56 57 57 58 58
62 62 62 62 62 61 63 64 63 64 63 61 61 62 61 62 60 60 60 59 57 55 52 55 54 55 54 54 53 53 51 52 53 54 54 54 55 55 56 56 56 57 57
62 62 61 60 60 61 63 63 62 62 62 61 61 61 60 60 59 59 59 58 54 54 51 49 51 50 50 52 52 49 48 50 50 52 53 53 54 55 55 54 54 54 55
60 60 61 60 61 61 62 63 62 62 62 61 60 59 59 58 57 55 54 53 53 52 51 49 48 47 47 47 46 45 46 45 47 48 52 53 53 53 53 52 53 52 52
59 60 60 59 59 60 60 60 60 60 59 58 57 57 57 56 55 55 53 54 52 51 51 50 48 46 45 46 45 43 40 42 41 45 47 49 50 51 51 51 51 50 50
58 58 57 57 57 56 56 56 56 55 54 53 51 53 51 48 47 48 51 51 50 49 48 45 44 44 43 41 41 41 39 38 38 39 38 40 42 43 46 49 47 48 49
54 55 54 54 53 53 50 52 54 52 52 51 50 50 51 46 48 48 48 47 46 46 45 44 42 41 42 42 41 39 36 35 35 38 37 37 39 39 42 44 48 48 48
53 52 52 52 51 49 49 50 51 50 49 47 47 47 48 50 47 50 48 47 46 45 44 43 42 43 42 44 40 37 36 35 36 36 37 35 38 37 40 45 46 47 48
49 49 49 50 49 48 47 47 48 47 48 48 48 48 48 49 48 47 47 45 45 46 44 44 42 42 41 42 42 40 38 36 35 35 37 34 36 36 39 41 46 47 47
46 46 48 48 48 46 46 46 47 48 46 46 48 49 48 48 46 44 44 39 43 44 43 42 42 42 43 44 44 38 34 34 32 33 34 35 34 35 37 39 39 45 46
44 46 46 48 48 47 46 46 47 49 46 47 47 48 44 47 45 44 43 43 38 41 39 38 38 38 39 39 39 36 35 33 33 32 34 34 33 33 32 36 36 38 39

GFSMA_sfc_temp_120.txt.gz
Temp
70 73 70 71 69 69 69 68 68 70 70 71 73 73 73 72 72 70 66 67 71 73 74 73 73 73 72 72 71 71 71 70 70 70 70 70 70 70 70 70 70 70 70
72 73 71 69 69 72 71 70 70 70 69 70 71 72 72 71 72 71 67 65 69 71 73 74 74 73 73 73 72 71 71 70 70 70 70 69 69 69 69 69 69 70 70
73 72 73 70 70 75 72 71 70 70 69 71 70 71 71 71 71 71 69 66 67 67 70 73 74 74 73 73 73 72 71 71 70 70 70 69 69 69 69 69 69 69 69
75 72 74 73 74 71 70 69 68 67 67 68 68 69 69 70 70 69 71 68 67 69 67 70 71 72 73 74 74 74 73 72 71 70 70 70 69 69 69 69 69 69 69
74 76 75 72 71 69 69 69 66 67 66 67 68 68 68 67 69 72 69 69 69 69 66 66 67 68 69 71 73 74 73 72 71 70 70 70 70 70 70 69 69 69 68
73 71 70 70 70 68 67 67 67 67 68 67 71 69 66 67 67 67 68 71 69 70 70 69 67 66 66 69 71 71 72 73 72 71 71 69 69 70 70 70 70 69 69
73 71 69 71 69 68 67 68 67 66 64 65 64 63 64 67 66 66 66 66 66 67 66 65 66 65 65 66 67 67 68 70 71 71 71 71 70 70 70 70 70 70 69
71 71 70 70 69 68 67 67 66 64 64 65 62 61 59 61 64 65 63 63 61 62 62 62 63 64 63 61 61 63 64 66 67 68 68 70 70 70 71 70 70 70 70
69 69 69 70 68 68 66 66 66 65 62 63 65 61 57 55 60 61 60 60 59 59 59 59 62 61 60 59 59 59 61 63 65 66 67 69 70 70 71 71 71 69 69
70 69 69 68 67 67 65 65 67 65 64 61 63 65 63 61 56 56 59 58 59 59 58 57 57 59 58 57 57 57 58 60 64 66 68 69 70 70 71 71 71 71 69
70 68 68 66 66 65 65 65 63 62 63 62 62 62 61 61 62 57 54 55 57 57 57 56 55 55 54 54 53 55 58 60 63 66 67 68 69 70 70 68 68 68 68
66 66 66 66 65 65 64 63 63 63 63 63 63 62 60 58 58 58 56 56 55 57 57 56 55 54 54 53 55 56 57 59 61 63 66 68 68 68 67 66 66 66 66
63 63 65 65 64 64 64 63 62 62 62 62 63 62 62 62 64 62 60 58 56 59 56 55 55 55 56 53 53 54 56 58 59 62 65 67 67 64 63 64 64 64 64
64 64 64 64 64 64 63 63 62 62 63 62 62 63 63 62 62 60 58 55 52 54 55 55 54 53 53 53 54 55 53 57 58 61 64 65 61 60 60 60 61 61 62
64 63 64 63 62 62 63 62 62 61 62 61 62 62 61 60 59 58 57 57 54 49 49 52 51 53 53 52 53 56 55 56 57 57 57 57 57 57 57 57 58 59 59
63 63 63 63 62 62 62 62 61 61 61 60 60 61 60 56 57 56 55 56 55 52 48 51 50 50 51 53 52 54 53 53 55 56 56 55 55 56 56 56 57 58 58
62 62 63 63 63 62 62 61 60 61 60 59 59 59 56 56 53 53 53 53 55 54 50 49 49 51 50 50 51 51 51 51 52 54 54 54 55 55 56 56 56 56 57
62 61 61 61 61 60 60 59 58 59 58 56 54 55 54 55 53 52 52 50 52 52 50 48 48 49 49 48 49 48 48 50 49 51 53 53 54 55 54 54 54 54 55
61 60 60 59 59 59 58 58 57 57 55 55 54 53 52 52 51 49 49 47 48 51 50 47 47 46 46 44 44 45 45 45 47 48 51 53 54 53 53 53 52 52 52
57 58 58 57 57 57 57 57 56 54 53 52 52 51 51 50 49 49 49 48 47 45 47 47 46 45 45 45 44 42 41 42 42 45 47 49 51 52 51 52 51 50 50
55 55 55 54 54 54 54 53 53 51 49 48 48 48 47 45 47 47 46 44 44 44 45 45 44 40 40 39 41 41 39 38 39 40 40 41 42 43 46 49 48 49 50
51 52 51 51 50 52 52 52 51 49 47 46 45 45 44 45 46 48 48 48 45 41 40 41 40 40 43 42 40 39 37 35 35 39 37 38 38 39 42 43 47 48 49
51 50 50 49 47 48 51 52 50 48 45 44 43 43 45 46 45 45 47 47 46 46 45 39 40 41 40 41 39 37 36 35 36 37 37 36 37 37 40 44 47 48 48
48 48 47 46 45 46 49 50 48 44 43 43 44 44 44 43 44 44 43 40 41 41 41 41 37 37 37 37 38 39 38 37 35 36 37 34 36 35 38 39 45 47 47
43 43 45 45 43 43 47 47 45 43 42 42 44 44 44 43 46 46 41 37 38 39 44 44 42 42 43 44 43 38 34 33 33 34 35 34 34 34 36 37 39 45 47
43 43 43 43 45 42 46 47 46 44 41 42 42 43 46 44 46 45 39 39 36 35 35 35 34 35 37 37 40 35 34 33 33 33 34 33 32 33 32 35 36 37 35

GFSMA_sfc_temp_123.txt.gz
Temp
67 68 66 66 65 64 64 63 63 65 66 67 68 70 69 66 65 65 64 67 71 73 74 73 73 73 72 72 71 71 71 70 70 70 70 70 70 70 70 70 70 70 70
69 69 67 67 65 65 66 65 64 66 67 68 68 69 68 67 66 65 64 65 68 71 73 74 74 73 73 72 72 71 70 70 70 70 70 69 69 69 69 69 69 69 69
71 70 69 67 68 69 67 66 66 67 66 68 67 68 68 67 67 65 65 64 66 67 70 73 74 74 73 73 73 72 71 71 70 70 70 69 69 69 69 69 69 69 69
72 71 70 69 68 71 67 66 66 65 65 66 65 66 66 67 66 66 65 65 64 66 67 70 72 73 73 74 74 73 73 71 71 70 70 70 69 69 69 69 69 68 68
72 72 72 70 69 71 66 66 64 65 63 64 66 65 65 66 67 69 66 65 64 65 64 66 66 68 70 72 74 74 73 72 71 71 70 70 70 70 70 69 69 69 68
73 73 73 70 72 67 65 65 65 63 64 65 69 67 65 65 66 65 65 68 66 66 65 65 63 64 65 69 71 71 71 72 71 71 70 70 70 69 70 70 70 69 69
74 73 72 72 70 68 66 66 65 64 62 64 63 62 63 64 64 63 63 63 63 63 63 63 63 62 63 66 68 69 69 70 71 70 70 70 70 70 70 69 69 70 70
72 74 73 71 70 66 65 64 64 62 63 64 61 59 57 60 61 62 61 61 60 61 61 61 61 62 61 59 61 63 65 67 68 68 68 69 70 70 71 71 71 70 69
70 70 70 69 69 69 66 64 64 64 61 62 63 61 55 54 57 59 59 59 59 58 57 58 59 58 58 58 59 59 60 62 65 67 69 69 70 70 71 71 71 71 69
69 68 68 68 68 66 65 65 65 64 63 62 63 63 62 59 55 54 57 57 57 58 56 56 56 57 56 55 56 57 58 60 64 66 68 70 70 70 71 70 69 69 68
69 69 69 68 66 67 65 65 63 63 62 61 61 60 59 58 59 55 52 54 56 56 56 56 55 54 54 53 53 55 58 60 63 65 67 69 69 69 70 68 68 67 67
67 67 68 67 65 66 65 64 63 63 62 62 62 62 59 58 57 56 56 56 54 56 56 55 54 53 53 52 55 56 57 59 61 63 65 67 68 68 67 66 66 66 66
65 65 66 65 65 65 64 63 62 62 62 61 62 61 61 61 61 59 59 57 54 55 55 54 53 53 54 51 52 54 55 58 59 62 65 67 67 64 63 63 64 64 64
66 64 66 65 63 63 63 62 62 62 62 61 61 61 60 60 61 61 59 56 51 52 52 52 51 51 52 51 54 55 52 57 58 60 64 63 61 60 60 60 60 61 61
64 63 63 63 63 63 62 62 61 61 61 61 61 60 59 58 60 59 57 57 56 48 47 49 49 51 52 51 53 54 55 55 57 57 58 57 57 57 57 57 58 59 59
63 63 63 62 62 62 62 61 61 61 61 60 59 59 58 58 58 56 54 54 55 52 48 49 48 49 50 51 53 53 53 53 54 56 56 55 55 56 56 57 57 57 58
62 63 63 62 62 62 62 61 60 60 59 58 59 59 58 57 53 53 52 52 51 51 47 47 47 47 47 48 51 51 51 50 51 54 55 54 55 55 56 56 56 56 57
63 63 63 62 62 61 61 61 59 59 58 57 56 57 56 54 51 51 50 50 49 49 48 45 45 46 46 48 45 46 48 50 49 51 53 53 54 55 54 54 54 54 54
60 60 61 61 61 60 60 59 59 58 57 56 56 54 52 51 49 48 48 47 47 48 47 46 44 45 46 45 44 44 45 44 47 48 50 52 54 54 53 53 52 52 52
60 60 60 59 59 59 59 58 57 55 55 54 53 52 51 51 50 49 48 47 46 45 44 44 44 45 43 42 41 41 42 42 42 45 47 48 51 53 52 52 51 50 50
57 57 57 57 58 58 56 55 54 53 51 49 50 48 47 47 48 49 46 44 44 43 42 41 42 41 38 39 41 42 39 38 39 41 41 42 43 44 46 49 48 49 50
51 52 52 52 51 51 50 52 52 51 50 49 45 44 45 46 48 49 49 48 45 42 40 38 37 38 40 42 41 39 37 35 36 39 38 38 39 39 42 43 47 48 49
49 48 48 48 48 50 51 51 50 48 46 45 44 42 43 45 45 44 48 48 47 47 45 40 38 39 39 41 39 37 36 35 36 38 37 36 37 37 40 44 47 48 48
47 47 46 46 45 47 50 50 49 46 46 45 45 45 45 43 43 43 42 40 40 41 41 40 38 37 37 37 36 36 38 37 36 36 37 34 36 36 38 40 46 46 47
45 45 46 46 45 45 48 48 46 45 44 43 45 45 44 42 46 47 40 37 38 38 44 44 42 43 43 44 44 38 34 33 33 34 35 34 34 34 35 36 38 45 46
44 44 45 45 45 43 46 47 44 43 41 41 41 43 46 43 47 46 38 37 35 34 35 34 34 36 38 36 41 36 35 33 33 33 34 33 32 33 32 35 36 37 38

GFSMA_sfc_temp_126.txt.gz
Temp
68 69 68 65 64 63 62 61 61 63 63 63 65 65 64 63 63 63 63 66 70 73 73 73 73 73 72 72 71 71 70 70 70 70 70 69 69 70 70 70 70 70 70
68 67 65 64 64 64 63 62 62 62 63 64 65 66 65 64 63 63 63 64 68 71 73 74 74 73 73 72 72 71 70 70 70 70 70 69 69 69 69 69 69 69 69
69 67 66 65 65 65 63 63 63 62 63 65 65 66 65 64 64 63 63 63 65 66 70 73 74 73 73 73 73 72 71 71 70 70 70 69 69 69 69 69 69 69 69
71 68 67 66 66 66 64 64 62 62 62 63 63 64 64 64 63 63 63 63 63 65 66 70 71 73 73 73 74 73 72 72 71 70 70 70 69 69 69 69 69 68 68
70 69 68 68 67 67 66 65 62 63 61 62 63 63 63 64 65 67 63 63 63 63 63 65 66 67 68 71 73 74 72 71 71 70 70 70 70 70 70 69 69 69 69
71 70 70 69 68 67 64 63 62 62 62 63 66 64 63 63 64 63 64 65 63 64 63 63 62 62 65 68 70 71 72 71 71 71 70 70 69 69 69 69 70 69 69
72 71 71 69 69 67 67 66 62 62 61 62 61 60 60 61 62 62 62 61 62 61 62 61 61 61 61 66 67 67 69 70 70 69 68 67 68 70 70 70 69 69 70
71 72 72 70 69 67 66 65 63 60 61 62 60 58 56 59 60 61 60 60 59 60 59 59 60 60 59 58 60 63 64 67 68 68 68 69 69 70 71 71 71 70 70
70 72 72 71 68 69 67 66 64 63 60 61 63 60 54 54 57 58 58 57 57 57 56 57 57 57 57 56 58 57 60 63 66 68 69 69 70 70 69 71 70 68 69
70 70 69 69 68 68 66 65 66 64 62 60 60 62 60 59 55 54 56 56 56 57 55 55 55 55 55 54 56 57 59 61 64 66 68 69 69 70 70 69 69 68 68
69 68 68 68 67 66 66 65 63 64 62 62 60 60 59 58 58 55 51 53 55 55 55 55 54 53 53 52 52 55 58 60 63 64 66 67 69 69 69 68 67 67 67
66 67 68 68 67 66 65 65 64 63 62 62 62 61 59 58 56 56 53 54 53 55 54 53 52 52 52 51 54 56 57 59 61 63 65 66 67 68 67 66 66 65 65
65 65 67 65 65 65 65 64 63 63 62 62 62 61 61 60 60 58 56 53 52 53 52 51 51 51 52 51 51 54 55 58 59 62 65 67 67 65 64 64 64 64 64
66 66 67 66 66 65 64 63 62 61 61 61 61 61 61 61 60 59 57 54 50 50 50 49 50 50 51 50 53 54 52 56 57 59 62 62 60 60 60 60 61 61 61
66 64 66 65 64 64 63 63 62 61 61 61 61 60 60 59 60 60 59 57 53 47 48 48 48 49 49 49 52 53 54 54 56 57 57 57 57 57 57 58 58 59 59
64 64 64 64 63 63 62 62 60 60 60 61 60 60 58 57 58 58 58 56 54 52 47 48 47 48 48 50 51 53 53 52 54 55 56 55 55 55 56 57 57 57 58
63 64 63 63 63 62 61 61 61 60 60 59 58 59 58 57 55 55 54 52 51 50 47 45 46 46 46 46 47 47 47 48 51 53 54 55 55 55 55 55 55 55 56
64 64 63 63 62 61 61 61 60 60 59 58 58 58 56 55 54 52 52 50 50 49 47 45 44 44 44 44 43 44 47 48 45 50 52 53 54 54 54 54 54 53 54
61 61 61 61 61 61 61 61 60 59 59 58 58 56 54 54 51 50 49 48 48 48 46 44 42 43 43 42 42 42 43 45 45 48 50 51 53 54 54 53 52 52 52
60 60 60 61 61 61 61 60 59 59 58 57 56 55 54 54 52 50 48 47 46 46 45 44 43 42 41 41 40 40 39 43 41 44 46 48 49 51 53 52 51 50 50
58 59 58 58 58 58 58 58 58 57 55 53 52 52 51 50 50 51 49 46 45 44 43 42 41 40 38 38 38 40 40 40 37 37 38 41 43 44 46 49 48 48 49
53 54 55 56 56 54 54 53 56 55 53 51 48 46 46 47 49 51 50 49 47 43 40 37 34 38 38 39 39 40 38 35 36 36 35 37 40 40 42 43 46 47 48
49 48 48 49 48 49 50 51 51 51 50 49 47 45 44 45 46 46 48 48 48 48 46 41 38 38 38 39 38 36 36 36 36 37 35 34 36 37 41 44 46 47 48
46 46 46 46 47 47 49 49 48 46 46 45 45 45 45 44 45 45 43 41 40 41 41 40 39 38 38 37 37 36 35 37 37 37 37 34 33 34 38 40 45 46 47
45 45 45 45 45 45 47 46 46 44 43 43 44 44 45 44 46 46 41 37 37 38 44 44 42 43 43 44 42 38 34 34 33 34 35 34 34 34 35 36 38 45 46
43 44 44 45 45 44 46 46 45 44 42 43 43 44 46 44 47 47 40 38 35 35 36 34 35 38 38 37 41 36 35 33 33 33 34 33 32 33 33 34 35 37 38

GFSMA_sfc_temp_129.txt.gz
Temp
69 68 65 64 62 62 61 60 59 61 61 61 62 62 62 61 62 63 63 66 70 72 73 73 73 72 72 72 71 71 70 70 70 70 69 69 69 69 69 70 70 70 70
70 70 67 63 62 62 61 60 60 61 61 62 62 63 62 62 62 62 62 64 68 70 72 73 73 73 73 72 72 71 71 70 70 70 70 69 69 69 69 69 69 69 69
71 70 67 63 63 62 61 60 61 61 61 62 62 63 62 61 62 62 62 62 64 66 70 73 74 73 73 73 73 72 72 71 71 70 70 70 69 69 69 69 69 69 69
69 67 65 65 64 63 62 61 60 60 60 61 61 61 61 62 61 61 62 62 63 64 65 69 71 73 73 72 73 73 72 71 71 71 70 70 70 69 69 69 69 69 68
69 68 67 66 65 64 63 63 59 60 59 60 61 61 61 61 62 64 61 61 62 63 62 64 65 66 68 71 72 72 73 72 71 70 70 70 69 70 69 70 69 69 69
70 69 67 66 65 64 62 60 60 60 61 61 64 62 60 61 61 61 61 63 62 62 62 62 61 61 64 68 70 71 71 70 71 71 70 69 70 70 70 70 69 70 70
68 69 67 66 66 65 64 63 60 61 59 60 59 59 59 60 60 60 60 60 61 60 61 61 60 60 61 64 66 68 69 70 69 69 69 69 69 70 70 71 70 69 69
69 68 68 67 66 65 62 63 61 59 60 61 59 58 56 58 58 59 59 60 59 59 58 59 59 59 58 57 59 62 65 67 68 69 69 69 69 69 70 70 71 70 69
69 68 68 69 67 67 64 64 63 63 59 59 61 60 54 54 56 57 57 57 57 57 56 56 57 56 56 55 57 58 61 63 66 68 69 69 69 70 69 69 69 69 68
67 68 68 69 68 67 65 65 66 65 62 61 59 61 60 58 55 54 56 56 56 56 55 54 54 54 54 53 56 57 59 61 64 66 68 68 69 70 69 69 68 68 67
67 66 65 65 66 66 65 64 63 63 65 62 59 59 58 57 57 54 52 53 55 55 54 54 53 52 52 52 51 55 58 61 63 64 66 67 68 69 69 68 67 67 66
66 67 66 65 65 66 64 64 65 64 63 62 60 60 59 58 56 55 53 52 54 53 53 52 51 51 51 51 54 55 57 59 60 62 65 67 67 68 68 67 66 65 65
65 65 65 64 64 66 65 65 64 64 62 63 63 62 61 60 59 57 55 53 52 52 51 52 51 50 51 50 51 53 55 58 60 62 66 67 66 65 65 64 64 63 63
65 65 64 64 65 66 66 65 64 63 63 62 62 61 60 60 60 58 57 54 50 50 49 49 52 49 49 49 52 54 51 57 58 59 60 60 60 59 60 60 60 61 60
66 64 64 64 66 65 65 64 64 62 63 62 62 61 60 59 60 59 59 56 54 48 48 48 48 48 48 49 50 50 50 54 56 57 57 57 57 57 57 58 58 58 58
64 63 63 64 64 64 64 63 62 62 62 61 61 60 59 58 58 58 58 56 55 53 48 47 47 47 47 49 50 49 50 52 54 55 56 55 55 56 56 56 56 57 57
62 62 63 63 63 63 63 63 61 60 61 60 60 60 58 58 57 56 56 54 53 52 47 45 45 46 45 46 46 46 46 45 46 52 54 55 55 54 55 55 55 55 55
63 63 63 63 62 62 62 62 61 61 61 60 60 59 57 56 55 55 55 53 52 51 48 45 44 43 44 43 43 42 45 47 44 49 52 53 54 54 54 54 53 53 53
61 60 61 62 62 62 61 62 61 60 60 60 59 59 57 56 55 52 53 52 51 49 48 45 42 42 42 41 40 41 41 42 45 48 50 51 52 53 54 53 52 52 52
61 61 61 61 61 60 61 60 60 59 59 59 58 58 57 56 55 53 51 51 50 48 46 44 42 41 41 40 40 40 39 40 40 43 45 47 49 50 52 52 51 50 50
59 59 58 58 58 58 59 59 59 59 58 58 57 57 56 55 53 54 53 50 48 47 45 44 42 40 39 38 38 39 37 37 37 36 37 39 41 44 46 50 48 48 50
54 57 56 56 56 55 53 53 56 57 57 57 56 54 54 49 51 52 51 51 51 48 45 42 39 39 38 38 38 37 36 36 33 35 35 36 38 40 43 44 47 48 48
49 48 48 49 48 49 50 51 52 53 54 54 54 51 47 48 49 50 50 49 49 50 48 44 41 40 39 40 38 35 35 35 36 37 37 34 34 35 39 44 47 47 47
47 46 46 46 46 47 48 48 48 47 46 45 46 46 46 45 46 46 45 42 43 44 43 42 41 41 40 39 39 38 37 36 36 36 37 34 34 34 35 38 45 46 47
45 45 45 45 45 45 46 46 46 44 44 43 44 44 44 43 46 46 42 39 39 40 45 44 43 43 44 43 40 37 34 34 33 34 35 35 33 34 34 33 37 45 47
43 43 43 44 46 44 46 46 45 44 43 42 42 43 45 44 46 46 41 40 37 38 38 37 37 40 41 41 44 38 35 33 33 33 35 34 32 33 33 33 34 37 38

GFSMA_sfc_temp_132.txt.gz
Temp
69 68 65 64 63 61 61 59 59 59 59 59 60 61 60 60 61 62 62 66 70 72 73 73 73 72 72 72 72 71 70 70 70 70 70 69 69 69 70 70 70 70 70
70 68 65 63 62 62 60 59 60 59 59 60 60 61 60 61 61 61 62 63 67 70 72 73 73 73 73 73 72 71 71 71 71 70 70 70 69 69 69 69 69 69 70
71 68 65 63 62 61 60 58 59 59 59 61 60 60 61 60 61 61 61 61 63 66 69 73 74 74 73 73 73 73 72 71 71 71 70 70 70 69 69 69 69 69 69
71 70 67 63 62 61 60 59 58 58 59 59 59 59 60 60 60 60 61 61 62 63 65 69 70 71 72 73 74 74 73 71 71 71 71 70 70 70 70 69 69 69 69
71 70 68 64 63 62 60 61 58 58 57 57 59 59 59 59 60 63 60 61 61 62 62 64 64 65 67 70 72 73 73 72 71 71 71 70 70 70 70 70 70 70 69
70 68 66 65 65 62 60 59 58 58 58 59 63 60 58 59 59 59 60 62 61 61 61 61 60 61 64 68 70 71 71 71 71 70 70 69 70 70 70 70 70 69 70
69 67 67 66 65 64 62 61 58 58 58 59 58 57 58 59 59 59 59 59 60 60 60 60 59 59 61 65 67 68 70 70 70 69 69 69 69 69 70 71 71 70 70
68 68 67 66 65 65 61 60 59 57 58 60 58 56 55 57 57 58 58 59 59 58 58 58 58 58 57 57 59 63 65 67 68 69 69 69 69 70 70 70 69 69 69
67 67 66 66 65 65 61 61 61 61 58 59 59 58 53 53 55 56 56 57 57 56 56 56 56 56 55 55 57 58 61 64 66 68 69 70 70 70 70 69 69 68 68
67 67 66 66 65 65 64 62 63 62 60 60 58 59 59 57 54 53 55 55 56 55 55 54 54 54 54 53 56 57 59 61 64 66 67 69 70 70 69 69 68 68 67
68 67 67 66 65 65 65 64 62 61 63 63 60 58 57 56 56 54 52 53 54 54 54 54 53 52 52 52 51 55 59 61 63 64 66 67 68 69 69 69 68 67 66
66 67 67 66 65 65 63 63 63 64 64 63 63 59 59 57 56 54 51 51 53 53 53 52 51 51 51 51 54 56 58 59 60 63 65 68 68 69 68 68 66 65 65
64 65 65 65 64 64 63 64 63 63 64 63 62 63 60 60 59 57 54 52 52 52 52 53 51 50 51 50 51 53 56 58 59 62 64 65 64 64 64 64 63 63 63
66 68 66 65 65 65 64 64 64 64 64 64 63 62 62 61 59 58 57 53 50 50 50 50 53 52 49 49 51 54 51 57 58 60 60 60 59 59 59 60 60 60 60
67 67 67 66 65 64 65 64 64 64 63 64 63 62 62 60 60 59 58 56 54 49 50 49 50 51 48 48 50 49 50 54 56 58 58 57 56 57 57 57 58 58 58
66 67 66 66 65 64 64 65 64 64 63 63 62 61 60 59 60 59 58 57 55 53 51 49 48 48 48 48 49 48 48 51 53 55 56 55 55 55 56 56 56 56 57
66 66 65 65 64 63 63 63 64 63 62 61 61 61 60 59 59 58 57 56 55 52 51 47 47 46 47 46 46 45 46 45 45 51 53 54 54 54 55 55 55 55 55
66 64 64 64 63 63 63 63 63 62 62 60 60 61 60 58 58 58 57 56 56 53 51 48 47 46 47 45 44 43 44 46 43 48 52 52 53 54 54 54 54 53 53
62 62 62 61 61 62 61 62 62 60 61 61 61 60 60 58 57 55 54 53 53 50 49 48 44 44 44 43 41 41 41 41 43 48 50 51 52 53 54 54 53 52 52
61 61 61 61 61 61 61 61 60 60 60 60 60 60 59 57 58 56 55 55 52 50 48 46 44 42 43 41 41 40 39 39 39 43 45 47 49 50 52 53 52 50 50
59 59 59 59 59 59 59 59 58 58 59 59 58 58 59 57 55 57 56 55 51 51 47 45 43 42 41 40 40 40 38 38 37 37 37 38 40 43 46 51 49 49 50
52 53 56 57 55 52 53 54 56 57 56 56 56 56 56 51 53 53 54 53 53 51 48 47 42 42 42 41 40 39 38 35 35 36 35 36 38 38 43 45 48 49 49
49 49 49 49 49 49 50 51 51 53 53 55 55 55 53 52 51 53 52 52 51 52 51 49 45 43 42 41 39 36 36 36 36 37 37 35 35 35 38 44 47 48 48
47 47 46 46 46 47 48 48 48 47 47 46 46 46 47 46 47 48 49 45 44 44 44 43 44 42 42 42 40 38 38 36 35 36 36 34 33 34 35 38 45 47 48
44 44 45 45 45 45 46 47 46 45 44 43 44 44 45 44 47 47 44 42 41 40 44 44 44 44 44 44 41 38 34 34 33 34 33 35 33 33 34 35 37 45 47
42 44 43 44 45 44 46 47 45 44 43 42 43 43 45 44 46 45 42 41 38 38 38 37 38 41 42 42 43 38 36 34 33 33 34 34 32 32 32 33 35 37 38

GFSMA_sfc_temp_138.txt.gz
Temp
76 80 78 78 78 82 82 81 82 82 81 82 82 82 81 82 82 82 82 68 71 73 74 74 73 73 73 72 72 72 71 71 71 71 70 70 70 70 70 70 70 70 70
78 76 76 78 80 81 82 81 81 81 81 82 81 81 81 81 81 81 82 78 68 71 73 74 74 74 73 73 73 72 72 71 71 71 71 70 70 70 70 70 70 70 70
77 75 76 77 80 81 82 81 81 81 80 80 80 81 81 82 80 80 81 82 76 66 69 73 74 74 74 74 74 73 73 72 72 72 71 71 70 70 70 70 70 70 70
78 77 76 78 81 80 80 79 79 78 79 78 79 80 80 80 81 81 80 80 79 80 70 69 70 71 71 72 73 74 74 73 72 72 71 71 71 70 70 70 70 70 70
77 77 76 79 80 79 78 78 78 78 77 77 78 79 79 79 79 80 79 79 79 78 79 69 66 66 68 70 72 73 73 73 71 71 71 71 71 70 70 70 70 70 70
75 75 74 77 78 77 77 77 76 78 78 78 77 76 78 78 78 78 79 79 79 77 77 77 77 73 65 68 70 72 73 72 71 71 70 70 70 70 70 71 71 70 70
73 73 75 73 75 76 77 77 76 74 75 78 75 74 75 76 76 77 78 78 78 77 77 77 77 76 75 67 69 70 72 72 71 70 69 69 69 70 70 70 70 70 70
71 73 73 69 72 76 76 76 75 73 74 75 72 73 68 72 75 76 77 76 76 77 75 75 75 73 75 74 72 66 68 70 70 70 70 69 69 70 70 70 70 70 69
71 71 71 68 69 73 74 74 73 73 71 74 75 73 67 66 73 75 74 75 74 74 73 72 72 72 72 73 67 66 63 66 68 70 70 70 70 70 70 70 70 69 68
71 71 70 69 68 69 71 71 72 71 73 70 72 75 75 75 67 66 71 73 74 72 71 69 70 71 71 73 67 63 61 63 66 69 70 70 70 70 71 71 70 69 68
70 69 69 69 67 67 70 68 67 67 72 71 71 71 71 71 72 68 65 63 67 69 71 71 68 71 70 70 70 65 60 62 65 67 68 69 69 70 71 71 70 69 67
68 72 71 68 68 66 65 66 63 65 68 68 70 70 71 68 67 65 64 63 64 66 67 69 68 69 69 69 65 60 59 61 64 65 67 68 69 68 70 70 70 68 67
71 69 67 67 66 66 66 68 63 63 63 65 67 69 70 71 72 68 68 68 64 67 65 67 67 66 68 68 67 56 56 59 61 64 66 67 63 62 65 67 68 66 65
73 72 68 67 67 67 66 66 64 63 63 64 65 66 66 66 68 69 68 67 63 65 64 64 65 67 67 66 65 54 63 57 59 61 64 65 62 60 61 62 62 62 62
73 74 72 69 67 66 67 66 66 64 65 65 65 67 65 66 66 68 69 70 66 63 64 63 61 63 64 64 62 62 62 57 58 59 60 60 59 59 58 59 59 59 59
70 72 73 72 69 66 66 66 65 65 65 66 67 65 66 68 69 67 67 70 67 65 62 67 62 61 60 60 59 62 63 55 56 58 58 57 57 57 57 57 57 58 58
70 70 71 72 71 68 66 65 65 64 64 65 65 66 65 69 65 67 67 67 65 65 61 64 60 58 55 55 56 57 59 58 60 55 57 57 56 56 56 56 56 56 56
70 70 70 70 72 72 68 65 64 64 63 63 65 64 66 67 65 66 64 64 63 64 61 61 58 54 53 54 54 54 54 57 61 55 54 55 55 55 56 55 55 55 55
70 71 70 70 70 70 71 69 66 64 63 64 65 64 64 67 62 62 62 61 61 60 58 59 57 54 53 50 51 51 53 50 52 52 53 53 54 54 54 55 54 54 53
69 70 70 70 70 71 70 68 65 64 64 62 63 64 63 63 62 61 60 60 61 60 57 56 55 49 48 47 48 48 45 46 46 47 49 51 53 53 53 54 53 52 51
68 69 69 69 69 67 66 66 65 64 63 62 61 60 60 57 52 57 59 60 59 57 56 54 54 48 46 43 45 48 49 48 44 45 45 46 47 49 53 52 52 50 51
63 60 65 66 59 56 54 54 59 58 57 56 56 56 56 52 53 53 53 52 55 57 56 54 54 51 52 51 51 48 48 42 41 44 44 43 48 50 53 54 54 51 50
49 47 48 49 47 49 51 52 53 56 55 57 54 54 53 52 51 53 53 51 51 51 52 53 53 54 54 55 50 46 45 45 45 40 43 40 42 45 51 53 50 50 50
47 46 46 46 46 46 48 48 48 48 46 46 46 46 47 47 48 49 49 47 45 45 45 46 46 44 44 45 45 44 45 42 39 39 42 38 43 45 51 51 49 49 49
44 44 45 45 45 45 46 47 48 47 45 44 45 45 46 46 47 48 46 44 44 43 45 46 46 46 46 45 44 41 37 36 35 36 38 39 40 43 45 48 50 47 48
44 45 46 48 47 46 46 47 49 49 46 46 46 46 46 46 47 47 44 43 43 43 42 42 43 44 45 45 45 45 40 37 35 34 38 37 37 41 39 44 45 47 47

GFSMA_sfc_temp_144.txt.gz
Temp
70 70 70 71 72 72 71 70 69 71 70 71 71 71 72 71 72 70 67 67 70 73 74 74 74 73 73 73 73 73 72 72 72 72 71 71 71 71 71 71 70 70 70
73 71 72 73 73 73 73 72 70 70 70 70 71 72 71 71 71 71 67 66 68 70 73 74 74 74 74 74 74 73 73 72 72 72 72 71 71 71 71 70 70 70 70
72 72 73 72 72 74 73 72 72 70 69 71 69 71 71 71 71 71 69 67 66 67 70 73 74 74 74 74 75 75 74 73 73 72 72 72 71 71 71 71 71 71 71
73 72 71 73 74 75 73 70 69 68 67 67 67 68 69 70 70 70 71 69 68 69 67 69 71 73 73 73 74 74 74 73 73 72 72 72 71 71 71 71 71 71 71
75 72 71 72 75 73 75 72 68 68 65 66 67 67 68 68 69 73 69 70 69 68 67 67 67 68 69 71 73 74 74 74 72 71 71 71 71 71 70 70 70 71 71
73 72 71 72 72 73 73 73 68 67 66 66 72 70 66 67 67 67 68 71 69 69 69 67 64 64 65 69 71 72 73 73 73 71 71 70 70 70 70 70 70 71 71
72 71 70 72 72 70 72 75 72 67 65 67 64 62 64 66 66 66 67 67 68 69 67 68 65 65 65 66 68 70 71 73 73 71 71 70 70 70 70 70 71 71 70
71 72 71 71 72 70 72 73 72 66 67 66 65 61 57 61 63 66 66 67 66 67 67 68 67 67 65 62 63 66 68 71 72 73 72 70 70 70 70 71 71 71 70
70 71 72 71 71 71 69 72 72 68 65 66 66 61 56 54 58 62 65 66 65 64 64 65 66 66 66 64 65 64 64 67 70 72 73 72 71 70 70 71 71 71 70
67 70 69 70 70 70 69 70 73 70 65 63 63 69 63 62 57 55 61 62 64 65 63 62 64 64 65 63 62 61 61 63 67 70 72 73 71 71 72 71 72 72 72
68 67 68 67 69 69 69 69 69 68 70 66 65 65 67 62 62 58 55 57 60 62 63 63 62 62 63 62 62 62 62 64 68 69 70 72 71 71 71 72 72 72 71
63 66 67 68 69 67 67 68 67 66 67 69 66 67 66 65 61 60 56 56 57 59 61 61 61 60 61 62 62 61 60 63 66 68 70 71 71 70 71 71 71 71 71
60 64 65 66 67 67 67 68 68 66 65 65 65 66 66 67 66 66 62 61 59 59 60 60 60 61 63 64 63 59 58 61 63 66 68 70 70 68 67 66 68 69 70
61 63 65 65 64 66 66 67 67 66 64 63 63 65 65 65 65 64 62 60 56 58 58 59 63 63 63 62 61 58 59 58 60 63 65 67 67 65 64 64 64 65 65
64 63 63 64 64 64 65 65 64 64 64 63 62 62 61 62 61 62 62 61 59 55 57 61 59 61 62 61 60 60 59 57 59 60 61 61 61 61 61 61 61 61 61
61 61 61 62 62 62 63 62 63 66 64 63 62 62 62 62 62 61 61 62 61 59 55 64 59 59 59 59 60 59 58 55 57 59 59 58 58 59 59 59 59 59 59
59 60 61 61 61 61 60 61 64 64 62 62 62 62 61 63 62 61 61 62 61 60 57 61 58 59 57 58 55 56 56 55 55 56 58 58 57 58 58 58 58 58 58
59 59 60 60 62 61 61 60 62 64 63 62 62 61 61 62 61 62 61 61 61 62 60 58 61 55 56 56 56 54 54 56 56 55 57 57 57 57 57 57 56 56 56
58 59 61 60 60 61 61 60 61 62 62 62 62 61 61 62 61 61 60 60 60 60 61 59 60 58 54 52 52 53 52 54 54 54 56 56 56 56 56 56 56 55 55
57 58 59 59 60 61 61 60 61 61 59 62 62 61 61 61 61 60 60 60 60 59 59 59 59 59 52 48 50 49 48 51 52 52 53 54 55 55 55 56 55 53 53
56 56 57 58 59 58 61 59 58 58 60 60 59 58 59 58 55 59 60 60 59 59 59 56 53 51 48 45 47 49 51 53 50 52 49 50 51 52 53 54 53 52 52
49 52 52 51 51 54 51 51 54 57 58 59 58 57 57 52 53 52 53 53 56 55 55 54 53 52 53 52 53 52 50 47 48 49 49 49 50 49 51 52 53 52 52
47 47 47 48 47 48 50 51 52 54 52 51 52 53 49 49 49 51 51 50 48 48 47 48 48 50 49 50 49 49 49 50 51 48 47 45 48 46 50 51 51 51 51
45 45 45 46 46 46 48 48 49 48 47 46 46 47 46 46 47 47 47 46 45 45 44 45 44 44 45 45 46 45 46 46 41 40 43 38 41 42 46 48 50 50 50
44 44 44 44 44 44 47 48 47 46 45 44 44 45 45 45 47 47 45 43 44 43 46 46 46 46 45 46 46 43 39 36 38 37 38 39 38 37 38 41 46 49 49
43 43 43 44 44 43 46 47 46 46 44 44 44 44 46 45 46 47 44 42 41 41 40 40 39 41 42 42 43 39 37 35 35 35 37 36 35 36 35 38 40 44 47

GFSMA_sfc_temp_147.txt.gz
Temp
68 69 68 69 68 68 67 66 65 65 65 64 65 65 67 66 66 66 64 67 70 73 74 74 74 73 73 73 73 73 72 72 72 72 71 71 71 70 70 70 70 70 70
71 70 70 70 70 69 69 68 67 66 66 66 67 68 67 67 67 65 65 65 68 70 73 74 74 74 74 74 74 73 73 73 72 72 72 72 71 71 70 70 70 70 70
71 70 70 70 71 71 71 69 69 68 67 67 66 67 67 67 67 66 65 65 66 67 70 73 74 74 74 74 75 75 74 73 73 72 72 72 71 71 71 70 70 70 70
72 71 70 71 72 72 71 68 70 68 66 66 65 65 66 67 67 66 65 65 64 67 67 70 71 73 74 74 75 75 74 73 72 72 72 72 71 71 71 70 70 70 70
72 71 70 71 72 72 71 70 68 69 63 63 65 65 64 65 66 70 65 65 64 65 65 66 67 68 70 72 73 74 74 74 73 72 71 71 71 71 70 70 70 70 70
70 71 70 70 69 70 71 72 71 66 65 64 69 68 64 64 64 64 65 68 65 66 65 64 64 65 65 69 71 73 73 73 73 72 71 70 70 70 70 70 70 70 70
69 70 70 69 70 70 72 71 72 70 64 64 62 60 61 63 63 64 64 64 65 66 65 65 63 63 64 66 68 71 72 73 73 72 71 70 70 70 70 70 70 70 70
69 69 70 70 70 69 70 71 70 69 69 64 62 59 56 60 60 63 63 65 64 65 64 65 64 63 63 62 63 66 69 71 72 73 72 71 70 70 70 71 71 71 70
68 68 69 69 69 70 68 69 69 69 66 66 66 61 54 54 56 60 63 64 64 63 62 63 65 64 63 62 62 63 64 66 70 72 73 73 71 71 71 71 71 71 71
64 68 68 68 68 69 69 68 70 68 69 64 64 68 62 60 55 54 58 62 63 63 62 61 62 63 63 62 61 61 62 64 69 71 72 73 73 72 72 72 71 71 71
62 63 67 66 66 68 68 68 67 67 68 67 66 65 66 60 61 56 53 56 58 60 63 63 61 62 62 61 61 61 62 64 68 70 71 72 73 73 73 72 71 71 71
58 61 63 65 65 66 66 66 67 66 66 67 67 66 65 64 63 58 55 55 56 58 64 64 62 61 63 63 62 61 61 64 67 69 71 72 72 72 72 72 71 71 70
57 57 61 63 65 65 66 66 66 66 65 64 64 65 66 67 67 66 62 60 58 58 58 61 64 62 63 62 63 58 59 62 64 67 70 71 70 70 70 70 70 69 69
56 59 59 60 61 63 64 65 65 65 66 63 62 63 64 65 65 64 64 62 56 58 56 58 61 63 62 63 63 58 62 59 61 64 67 68 67 66 66 67 67 67 66
59 59 59 60 61 62 63 63 63 63 63 62 62 63 62 62 62 62 61 60 60 55 56 59 58 61 62 62 61 61 60 60 60 61 62 62 62 62 62 63 64 63 63
56 58 58 58 59 59 60 60 61 62 62 64 64 63 62 63 61 61 61 61 60 59 55 58 59 59 60 60 61 60 61 57 57 60 60 59 59 59 60 60 61 61 60
56 56 58 58 57 58 58 58 59 60 60 61 61 60 61 62 61 61 61 62 60 60 57 59 58 59 58 59 59 58 59 57 58 57 59 58 58 58 58 59 59 59 59
55 56 57 57 57 57 57 57 57 58 59 59 60 61 61 61 60 61 61 60 60 61 59 57 61 60 57 59 60 57 57 57 57 56 57 58 58 57 57 57 57 57 57
55 56 57 56 56 57 56 56 57 57 58 60 59 61 60 61 60 60 60 59 59 60 60 59 59 61 60 52 53 53 55 55 55 53 56 57 57 57 57 57 56 56 56
54 55 56 56 57 58 57 57 57 56 57 59 61 61 61 61 61 60 59 59 59 58 58 58 58 58 57 51 51 51 50 51 52 52 53 54 55 56 56 56 56 54 54
52 53 54 53 53 54 55 53 56 56 55 57 58 60 61 59 54 57 59 59 58 57 57 56 56 53 49 47 49 50 50 53 50 52 51 51 52 53 54 55 54 52 53
47 48 48 49 49 52 50 51 50 52 54 55 55 56 54 52 52 53 51 50 51 55 56 55 53 52 52 50 50 49 49 47 45 50 49 51 50 50 52 53 53 53 53
47 47 47 47 46 47 49 51 52 52 50 50 51 50 48 48 49 51 50 49 48 48 47 48 46 45 45 45 45 45 46 46 47 47 46 45 47 47 50 51 52 51 51
44 44 45 45 45 46 48 48 48 47 46 46 46 47 46 46 47 47 47 45 44 44 44 44 44 43 44 44 44 44 43 42 41 42 43 38 42 42 44 46 50 50 51
43 43 44 44 44 44 47 47 46 45 44 43 44 45 45 45 47 47 44 43 42 42 45 45 45 45 45 45 44 42 36 36 36 38 39 39 38 37 36 38 43 47 49
42 43 42 43 44 43 46 46 46 45 43 42 43 44 45 45 46 45 43 42 40 40 40 39 38 39 40 40 42 39 36 34 34 34 37 36 35 36 36 37 35 40 44

GFSMA_sfc_temp_150.txt.gz
Temp
67 68 68 68 67 66 67 66 64 64 63 62 62 62 63 62 63 64 63 66 70 73 75 75 74 74 73 73 73 73 72 72 72 71 71 71 71 70 70 70 70 70 70
70 68 68 68 67 68 68 67 66 64 63 62 63 63 63 63 64 64 63 64 68 70 73 74 75 74 74 74 74 73 73 73 72 72 72 72 71 71 71 70 70 70 70
69 69 69 69 69 70 69 67 65 65 63 63 63 64 66 63 64 63 64 63 65 66 70 74 74 74 74 74 75 75 74 73 72 72 72 71 71 71 71 70 70 70 70
71 69 68 69 69 69 69 67 67 65 64 63 64 64 65 64 64 63 64 63 63 66 66 69 72 73 74 74 75 75 75 73 72 72 72 71 71 71 70 70 70 70 70
71 70 69 69 68 68 68 68 67 67 65 64 65 64 63 63 64 67 62 63 63 64 64 65 66 68 70 72 74 75 75 74 72 72 71 71 71 71 70 70 70 70 70
69 70 70 69 69 67 68 69 67 66 63 66 68 67 62 62 63 62 63 65 64 64 63 63 63 65 65 69 71 73 74 74 73 72 71 71 70 70 70 70 70 70 70
67 67 70 69 69 68 69 69 68 67 66 65 63 59 60 61 61 62 63 64 64 64 63 64 63 63 64 66 68 71 72 73 73 73 72 71 70 70 70 70 70 70 70
63 67 67 69 69 68 69 68 67 67 68 65 65 59 56 59 60 63 62 65 64 65 64 64 63 63 62 62 62 66 68 71 73 73 73 71 71 70 71 71 71 71 71
60 62 66 67 69 68 68 68 67 66 64 63 67 62 56 54 56 59 63 64 64 63 63 63 63 64 63 62 62 63 64 67 71 72 73 73 72 71 71 72 71 71 71
58 60 62 66 67 68 68 68 68 67 66 63 63 69 63 62 56 55 58 61 64 64 62 62 63 63 63 63 61 61 62 63 68 71 73 73 73 73 73 72 72 72 72
57 58 60 62 65 66 67 68 67 66 66 64 62 62 64 61 61 57 55 55 56 60 66 63 64 64 63 64 62 61 61 64 68 71 72 73 73 74 74 73 73 72 72
54 56 59 61 64 65 65 66 65 65 65 65 64 64 62 62 61 58 55 54 55 58 63 65 64 64 61 62 62 60 61 63 67 70 72 72 72 72 73 73 73 71 71
53 54 55 58 60 63 64 63 64 63 64 63 63 63 64 64 66 65 63 61 56 57 57 58 62 65 63 64 62 58 58 61 64 67 70 72 71 70 70 71 72 71 71
54 55 55 56 58 60 62 63 63 62 62 63 63 62 63 63 62 62 63 61 57 59 57 58 59 60 62 61 61 58 60 59 61 64 67 69 68 66 66 68 69 69 69
56 54 55 55 56 57 59 60 61 60 61 61 62 61 60 62 61 61 61 61 59 56 56 56 58 60 61 61 60 61 60 59 60 61 62 63 63 63 63 63 64 65 65
53 54 55 55 56 57 57 58 58 59 59 60 60 61 61 62 61 61 61 61 61 59 56 58 58 59 60 60 61 61 62 57 58 60 60 60 60 61 61 61 61 62 63
52 53 54 54 55 55 56 55 56 57 57 59 59 60 61 62 61 61 61 62 60 60 57 61 59 58 58 59 59 60 61 61 60 57 59 59 59 59 59 59 59 60 61
52 53 54 54 55 54 54 54 54 55 55 56 57 57 58 59 60 61 61 60 61 62 60 58 61 58 57 59 61 58 58 58 59 58 57 58 58 57 58 57 57 57 58
52 53 53 53 54 54 54 53 53 54 54 55 56 57 58 59 60 61 60 60 60 60 60 59 59 60 59 55 55 54 56 56 55 54 56 56 57 57 56 56 56 56 55
52 52 53 54 54 55 55 54 54 53 53 55 55 56 58 58 60 60 59 60 60 59 59 58 58 57 57 52 52 53 52 51 53 52 54 54 55 55 55 56 55 54 53
50 52 52 52 51 52 53 50 52 53 53 53 54 55 57 56 55 57 60 60 59 58 57 56 55 54 52 48 50 51 50 51 51 51 50 51 51 51 53 54 52 52 52
48 49 49 48 48 50 49 49 50 50 50 51 51 52 52 51 52 53 52 49 51 55 55 55 55 54 51 49 48 48 48 47 46 49 48 49 49 49 50 50 53 53 52
46 46 46 47 46 47 49 50 51 51 51 51 52 50 48 49 50 50 49 48 48 48 47 49 47 45 45 44 45 44 44 44 45 46 45 44 47 47 49 50 51 51 51
44 44 44 45 45 46 47 48 48 47 45 45 46 46 46 46 47 47 45 44 43 44 44 44 44 43 43 44 44 43 42 41 41 42 43 37 42 42 43 44 49 50 50
42 42 43 43 43 44 47 47 46 44 44 43 44 45 45 45 47 47 44 42 41 41 44 45 44 44 44 44 43 41 36 36 35 38 39 38 38 37 37 37 40 46 47
42 42 42 42 44 43 46 46 46 44 42 42 43 44 45 45 45 45 43 42 39 39 39 39 38 39 40 40 40 38 36 33 33 34 37 35 34 35 35 36 36 40 39

GFSMA_sfc_temp_153.txt.gz
Temp
67 69 69 67 68 66 67 67 65 64 63 62 61 60 61 60 61 62 62 64 68 73 75 75 74 74 73 73 73 72 72 72 72 71 71 71 71 71 70 70 70 70 70
67 67 69 69 69 67 67 68 66 65 63 62 61 61 60 61 62 62 62 62 66 70 73 75 75 75 74 74 74 73 73 72 72 72 72 71 71 71 71 71 70 70 70
69 68 68 68 70 69 67 66 65 64 64 63 61 62 62 60 61 62 62 62 63 66 69 74 75 75 74 75 75 75 74 73 72 72 71 72 71 71 71 70 70 70 70
70 69 68 68 69 68 67 65 65 64 64 62 62 62 63 62 61 62 62 62 62 65 66 69 71 73 74 74 75 76 75 74 72 72 72 71 71 71 71 71 70 70 70
66 69 69 69 69 68 67 67 65 65 63 62 63 63 63 63 63 65 61 62 62 64 63 65 66 68 69 72 74 75 76 75 73 72 72 71 71 71 71 71 70 70 70
61 64 68 69 69 68 67 67 65 64 63 63 66 65 63 64 63 61 63 65 64 63 63 62 62 64 65 68 71 73 74 74 73 72 72 71 71 71 71 71 70 70 70
59 60 64 66 69 67 67 68 66 64 62 61 62 62 59 61 61 63 63 63 63 63 63 62 63 62 62 65 68 70 72 73 73 73 72 72 71 71 71 71 71 70 70
57 58 59 63 65 67 68 67 66 65 65 63 63 60 58 59 60 63 62 63 63 64 63 63 62 62 62 62 62 66 68 71 73 73 73 72 72 71 71 71 71 71 71
56 57 57 59 62 64 66 67 66 65 63 64 65 61 55 56 57 59 63 64 64 61 64 64 63 63 63 62 62 63 63 66 71 73 73 73 72 72 72 72 72 72 71
55 56 56 57 59 62 64 65 68 66 66 63 59 64 63 61 57 56 57 60 64 63 64 63 65 64 63 62 61 61 62 63 68 71 73 73 73 74 74 73 72 72 71
54 55 56 55 56 59 62 64 64 65 65 64 62 60 60 61 57 56 55 56 56 59 64 65 66 64 62 62 62 61 61 64 68 71 72 73 74 74 73 73 74 73 72
52 53 55 55 56 58 59 62 63 63 64 65 65 64 62 58 59 57 55 56 56 58 61 63 63 64 65 63 62 60 61 63 67 70 72 73 73 73 73 73 73 73 71
50 51 52 52 55 57 60 62 62 62 62 63 63 64 63 63 63 62 60 60 57 57 58 58 62 63 64 63 63 58 58 61 63 67 70 72 71 70 70 71 72 71 71
51 53 52 52 53 56 58 60 61 61 60 61 61 62 63 63 63 62 61 59 57 57 56 58 58 59 61 61 61 57 60 59 60 63 66 68 67 66 66 67 68 69 69
54 52 52 52 52 53 55 57 59 58 59 60 60 60 61 62 61 62 60 60 59 55 57 58 57 59 60 60 59 60 60 59 60 60 61 62 62 63 64 64 65 65 65
51 52 52 52 52 52 54 54 55 56 57 58 58 58 58 59 59 59 60 61 60 58 55 59 58 59 60 60 60 61 62 57 58 60 60 59 59 60 61 62 62 62 62
50 50 51 52 52 52 53 53 54 55 55 55 56 57 57 58 59 60 60 60 60 59 56 60 61 60 58 59 59 60 60 60 61 58 59 59 59 58 59 59 60 60 60
49 50 51 51 52 52 52 52 52 53 53 53 54 55 55 57 57 59 60 60 60 61 59 57 61 58 57 59 60 59 59 59 60 59 59 58 58 58 58 58 58 58 58
49 50 51 51 51 52 52 52 51 52 52 52 53 53 54 55 55 57 57 59 60 60 60 58 59 61 60 56 57 57 57 58 56 55 57 57 57 57 57 57 56 56 55
50 50 50 51 51 52 52 52 52 51 51 52 52 53 54 54 55 55 56 57 59 58 59 58 58 58 58 54 55 54 52 53 54 53 53 54 55 55 55 56 55 53 53
49 48 49 49 48 50 50 48 48 48 50 50 51 52 53 53 52 55 57 57 56 57 57 56 56 54 53 50 51 51 52 51 51 49 50 50 50 51 52 53 52 51 52
48 49 49 49 48 49 49 49 49 49 49 48 49 50 51 50 52 51 52 51 51 54 56 56 55 53 52 51 49 49 48 47 46 47 47 48 49 48 50 50 52 52 52
45 45 45 46 46 47 49 49 50 51 50 51 50 50 50 49 49 49 49 48 47 47 47 50 49 46 45 45 45 44 45 45 45 45 45 44 45 45 48 48 50 51 51
43 43 43 44 44 46 47 47 47 47 46 45 46 46 46 46 48 47 46 44 43 43 43 44 43 43 43 43 43 43 42 41 41 42 43 37 42 40 41 42 47 48 48
42 42 42 42 43 44 46 46 46 44 43 43 44 44 44 44 47 47 43 41 40 41 44 45 44 44 44 43 43 41 36 36 35 37 38 38 38 37 36 37 38 46 47
40 42 41 41 42 42 46 46 45 44 41 41 42 43 45 44 45 45 43 41 38 38 39 38 37 38 38 38 39 37 36 33 33 34 36 35 35 35 34 35 36 40 38

GFSMA_sfc_temp_156.txt.gz
Temp
68 68 69 68 69 68 69 68 66 65 63 62 61 59 59 59 59 60 60 64 68 71 75 76 75 74 74 73 73 73 72 72 72 72 71 71 71 71 71 71 71 71 71
68 68 68 68 69 69 69 69 69 67 64 62 61 60 59 59 60 60 60 61 66 69 72 75 76 75 75 74 74 73 73 72 72 72 72 72 71 71 71 71 71 71 71
68 68 68 68 69 69 68 68 69 66 64 63 63 62 61 59 59 60 60 60 62 65 69 73 75 75 75 75 75 75 74 73 73 72 72 72 72 71 71 71 71 70 70
62 64 66 68 69 69 68 66 67 66 65 64 63 63 63 61 60 60 61 60 61 64 65 69 71 73 74 75 75 76 76 74 73 72 72 72 71 71 71 71 71 70 70
60 59 62 65 69 68 68 67 65 66 65 64 63 63 61 61 63 64 61 61 60 62 62 64 66 68 70 72 74 75 76 75 74 73 72 72 71 71 71 71 71 70 70
57 57 58 62 66 67 67 67 66 65 65 65 64 64 63 63 64 63 65 65 62 62 62 61 62 64 65 69 71 73 74 74 73 73 72 72 72 71 71 71 71 70 71
56 55 55 58 61 64 67 68 67 65 63 64 62 61 62 63 63 63 63 62 63 65 62 62 62 62 63 65 68 70 72 73 73 73 72 72 72 72 71 71 71 71 71
55 55 54 55 58 61 63 65 67 65 64 64 61 60 57 60 62 63 63 63 63 64 65 63 64 63 63 62 62 66 68 71 73 73 73 72 72 72 72 72 72 71 71
55 54 54 54 55 59 60 62 64 65 63 64 64 61 55 55 58 59 62 64 64 61 63 62 62 64 64 64 62 63 64 66 71 73 74 73 73 73 73 72 72 72 72
54 54 54 54 54 55 58 60 63 63 64 62 61 64 64 61 57 55 58 58 62 63 63 63 65 65 65 64 62 61 62 64 68 71 73 73 73 74 74 74 73 72 72
53 54 54 53 53 53 55 57 59 61 63 62 63 60 61 62 59 56 57 56 57 58 62 63 64 64 65 64 63 62 61 64 68 71 73 73 74 74 74 74 73 72 72
51 52 53 53 53 53 53 55 58 60 61 62 62 63 62 58 58 57 56 58 57 60 59 61 62 64 64 63 62 60 60 63 67 69 72 73 73 73 73 74 73 72 71
48 51 51 51 51 53 54 56 57 59 60 60 60 61 62 62 62 61 59 59 58 57 58 59 62 63 64 63 63 58 58 61 64 67 70 72 71 70 70 71 72 72 72
54 54 51 50 51 52 53 54 57 59 58 59 59 59 60 60 60 61 59 59 57 57 57 57 59 60 61 61 60 57 61 59 61 64 67 68 67 66 66 68 69 68 68
55 51 51 50 50 51 52 53 55 56 57 57 57 58 59 60 59 60 60 60 58 54 56 56 56 60 60 60 60 61 60 58 59 60 61 62 62 62 63 63 64 65 65
50 53 50 50 50 50 51 51 51 54 55 56 57 56 56 57 57 58 58 59 59 57 54 59 57 58 59 59 60 60 61 56 58 60 61 59 59 60 60 61 61 62 62
48 48 49 49 49 50 50 50 51 52 53 53 54 55 55 56 56 57 58 61 59 59 55 59 61 59 57 59 59 59 61 61 62 58 60 59 58 58 58 59 59 60 60
48 48 48 49 49 50 50 50 50 51 51 51 52 52 53 55 54 55 56 56 57 58 57 56 60 60 57 58 60 59 59 60 61 58 58 57 57 57 58 57 57 57 57
48 48 48 48 49 50 50 50 50 50 50 51 51 51 52 52 52 53 54 55 56 57 57 57 57 60 60 56 56 58 59 59 58 55 57 57 57 57 57 56 56 56 55
49 49 48 48 48 49 49 49 49 49 49 49 50 50 51 51 52 52 53 54 55 55 55 55 57 57 58 58 56 58 54 56 56 54 54 54 55 55 55 56 55 53 52
49 50 50 49 49 50 50 49 49 48 48 47 49 50 51 50 50 52 53 53 54 54 55 54 54 55 56 51 52 54 54 53 51 51 50 51 51 51 52 53 51 51 51
47 47 47 48 47 49 48 49 49 48 48 49 49 50 49 49 51 52 53 51 51 54 54 54 54 53 55 52 51 51 51 48 47 47 48 48 50 49 50 50 51 51 51
45 44 44 45 45 46 48 48 48 50 49 49 49 49 50 49 49 49 48 47 47 47 47 48 50 46 47 45 46 45 46 45 45 44 45 44 45 45 47 47 48 48 49
42 42 42 43 44 45 47 47 47 46 45 44 44 45 45 45 47 47 46 43 43 44 44 44 43 42 42 42 42 42 41 41 41 41 42 38 41 41 42 43 45 47 48
41 41 41 41 41 43 46 46 45 44 42 42 43 44 44 44 46 46 43 40 40 40 43 42 42 42 42 42 41 41 36 36 35 36 37 37 37 37 37 37 39 45 45
37 38 39 40 42 41 46 46 45 43 41 41 41 41 44 43 44 44 41 40 37 37 37 37 36 36 37 37 39 36 35 33 33 34 34 34 34 34 32 34 36 37 37

GFSMA_sfc_temp_159.txt.gz
Temp
69 69 71 71 71 72 72 72 71 73 74 74 73 72 72 73 73 73 74 64 67 71 74 76 75 75 74 74 73 73 73 72 72 72 72 72 71 71 71 71 71 71 71
71 69 69 69 71 70 71 71 71 70 70 73 73 73 72 72 73 73 74 74 65 68 71 74 76 76 76 75 75 74 73 73 73 72 72 72 72 72 72 72 72 71 71
68 71 70 68 69 70 70 69 69 70 68 68 71 73 72 70 72 72 73 73 73 65 67 72 74 75 76 76 76 75 74 73 73 73 72 72 72 71 72 72 72 71 71
67 66 68 69 70 69 69 68 68 67 67 66 67 68 69 70 72 73 73 73 73 74 69 68 71 73 74 75 76 77 76 74 73 73 72 72 72 72 72 71 72 71 71
66 65 65 67 71 70 68 67 67 67 66 65 65 67 68 68 70 71 72 72 72 72 74 69 66 68 70 72 75 76 76 75 75 74 73 72 72 72 72 71 71 71 71
64 63 63 65 67 68 70 69 66 66 66 66 65 65 66 65 66 70 70 69 70 70 71 72 73 72 65 69 72 74 75 75 74 73 73 72 72 72 72 72 71 72 71
63 62 62 63 64 65 67 70 70 66 64 66 64 64 64 64 63 64 70 70 67 69 72 72 73 73 73 65 68 71 72 74 74 73 73 72 72 72 73 72 72 72 71
61 62 61 61 63 63 65 67 68 68 66 65 62 61 59 60 62 63 65 69 68 66 65 70 72 72 73 74 71 67 69 72 73 74 73 73 72 72 73 73 72 72 72
59 60 61 61 61 61 61 63 65 66 65 68 64 62 57 57 65 66 65 66 69 69 69 63 65 70 70 73 69 67 64 67 71 74 74 74 73 73 73 73 73 73 72
59 59 59 60 60 60 60 62 65 65 66 64 65 65 65 63 58 60 66 66 68 68 69 68 66 63 64 68 67 63 62 63 68 72 74 74 74 74 74 74 74 73 72
57 58 59 59 58 59 59 60 61 62 65 64 65 64 63 63 63 59 59 64 62 66 66 69 68 68 64 64 64 64 61 64 68 71 73 74 74 74 74 74 74 74 72
56 56 57 57 58 58 58 59 60 61 62 63 65 66 64 62 61 58 57 60 62 67 67 68 63 66 66 63 61 59 60 62 65 69 72 73 73 73 74 74 74 73 72
53 54 56 56 56 57 59 59 59 59 61 61 63 64 66 66 66 65 63 61 60 61 63 63 66 67 68 65 64 57 58 60 62 66 69 72 72 70 71 72 73 72 72
56 57 55 54 56 57 58 59 58 59 61 61 62 63 65 66 66 66 64 62 59 62 64 65 69 68 69 68 65 57 62 59 61 63 65 69 68 67 66 68 69 69 69
57 56 55 54 55 56 57 58 57 58 60 62 62 63 63 65 65 65 65 65 62 57 59 65 63 68 67 67 64 65 63 60 60 61 62 63 63 63 63 64 64 64 64
54 54 55 53 54 55 56 56 56 58 59 60 61 62 62 63 64 64 63 64 63 60 55 65 65 66 67 65 64 64 66 57 58 60 60 60 60 60 61 61 62 62 62
53 53 53 54 54 55 56 55 56 57 57 58 59 60 60 62 62 62 62 62 61 61 56 62 64 67 66 66 66 65 64 64 64 57 60 60 59 59 59 59 59 60 60
53 53 53 53 54 54 55 55 56 57 57 57 59 58 59 60 61 62 61 61 61 63 60 57 62 63 64 66 64 63 62 64 65 61 58 59 58 58 58 57 57 57 57
52 53 53 52 53 53 54 54 54 55 56 57 57 57 58 58 58 59 59 59 60 60 60 59 59 63 63 64 60 60 60 61 63 57 58 58 58 58 57 57 56 56 55
50 51 51 51 51 52 51 51 50 50 51 53 54 55 56 56 56 57 57 58 58 58 59 57 58 59 60 63 62 60 60 60 59 58 57 57 57 56 56 56 55 53 52
49 49 49 49 49 50 50 50 50 50 49 50 50 51 53 51 46 50 53 54 55 54 54 54 54 55 56 57 56 60 58 61 61 56 54 53 53 53 54 54 51 51 52
47 47 47 48 47 49 48 49 49 50 50 50 50 52 53 50 51 51 50 49 49 49 50 51 52 53 56 52 51 53 51 50 49 47 49 49 50 50 50 48 49 49 49
45 45 45 45 45 47 48 48 47 49 47 46 46 47 48 48 48 49 48 46 46 46 46 45 45 42 43 42 43 45 44 44 42 41 44 44 44 43 45 45 47 48 48
44 44 43 44 45 46 47 47 46 46 44 44 44 44 44 45 47 47 44 43 41 41 41 41 41 40 41 42 42 41 41 42 41 40 40 38 40 40 41 42 46 46 45
42 42 42 42 43 44 46 46 46 45 43 42 43 44 45 44 45 46 43 40 39 39 42 42 41 40 41 41 41 40 36 36 35 35 36 37 36 36 37 38 40 43 43
40 41 40 40 41 41 45 45 45 45 42 42 42 42 43 44 44 44 43 41 37 37 37 36 36 35 36 36 38 35 35 33 33 33 35 34 35 36 34 37 38 40 41

GFSMA_sfc_temp_162.txt.gz
Temp
73 71 72 74 74 77 78 79 78 81 79 79 81 81 81 82 82 82 82 66 67 71 73 75 76 76 75 74 74 73 73 73 72 72 72 72 72 72 72 72 72 72 72
78 78 72 70 72 73 76 76 76 74 74 79 79 81 81 81 81 81 82 81 66 68 71 74 75 76 76 75 75 74 73 73 73 73 72 72 72 72 72 72 72 72 72
76 76 78 76 70 71 72 72 73 73 71 73 72 79 81 82 81 80 80 81 79 64 68 72 74 75 76 76 76 75 74 73 73 73 73 72 72 71 71 72 72 72 72
75 74 75 76 78 75 69 69 69 68 68 69 70 70 75 80 81 80 80 80 80 81 70 68 71 73 74 75 76 76 75 74 73 73 73 72 72 72 72 72 72 72 72
74 74 74 74 76 76 76 73 67 67 66 67 67 69 71 71 76 76 76 78 79 79 80 72 66 68 70 72 75 76 76 75 74 74 73 73 73 72 72 72 72 72 72
72 71 72 72 73 72 73 75 74 71 67 67 67 66 67 69 69 69 70 70 69 72 75 76 79 74 65 69 72 74 75 75 74 73 73 73 72 72 73 73 72 72 72
70 70 70 71 71 70 72 73 74 73 72 67 66 65 65 66 65 67 66 65 64 64 65 74 76 78 78 66 68 71 73 74 74 73 73 73 72 72 73 73 73 72 72
66 67 68 69 70 70 70 71 70 70 72 73 64 63 60 62 64 69 68 67 67 65 63 63 68 72 75 79 75 67 68 72 74 74 73 73 72 72 73 73 73 73 72
64 64 66 67 68 68 67 68 69 68 67 72 73 67 62 60 68 73 71 68 67 66 66 66 69 68 70 73 72 71 64 66 70 73 74 74 73 72 73 73 73 73 72
63 63 63 65 66 67 66 66 68 67 67 65 69 71 70 70 64 64 66 71 74 71 71 71 71 74 72 71 66 62 62 63 67 71 73 74 74 74 74 74 73 73 72
63 63 63 64 64 65 65 65 65 66 68 66 66 68 69 67 64 59 59 68 73 74 75 76 76 74 75 73 72 67 63 64 67 69 71 72 73 75 75 75 74 73 73
61 63 62 62 64 64 63 64 64 65 65 66 67 67 66 64 64 63 61 64 63 72 75 76 76 76 75 71 67 62 61 63 65 67 69 71 71 72 73 74 74 73 72
58 58 58 57 58 61 63 63 63 63 64 63 65 66 68 68 69 68 64 62 63 69 70 74 74 75 75 73 71 59 59 61 63 66 68 70 69 69 70 72 73 73 72
60 63 61 58 56 57 59 62 63 63 63 63 63 65 67 68 70 69 67 65 63 66 69 69 74 76 76 76 71 60 67 59 61 63 67 68 67 65 66 67 69 70 70
62 63 63 62 57 56 57 59 61 62 63 64 64 65 66 68 69 69 69 68 65 60 63 70 71 76 75 74 70 72 70 63 60 61 62 62 63 63 63 65 66 66 66
62 61 61 61 60 56 60 60 60 61 62 63 64 65 66 67 68 68 67 67 67 63 59 68 70 72 73 71 69 70 70 59 59 60 60 60 60 60 61 63 63 63 63
61 60 61 60 60 60 61 61 61 62 61 62 64 64 65 67 66 67 67 67 65 64 60 65 69 71 70 69 71 72 70 72 71 58 59 59 59 59 59 60 60 61 61
55 58 60 60 60 60 61 60 60 62 62 62 64 64 64 66 65 67 67 66 65 66 63 60 65 67 67 69 70 69 69 70 69 63 59 58 58 58 59 59 59 59 59
53 54 54 55 56 57 58 58 59 60 60 61 61 61 62 63 62 63 64 63 64 64 64 62 61 65 66 67 66 67 67 68 68 59 58 58 58 58 58 58 57 57 57
53 52 52 52 52 53 53 54 53 53 54 55 54 56 58 59 59 60 60 61 61 61 62 61 59 59 60 62 63 61 61 65 65 66 60 58 57 56 56 57 57 55 55
50 51 51 52 51 52 52 52 53 52 52 52 53 54 54 52 47 51 53 54 53 52 53 52 52 54 55 54 53 59 56 59 61 48 52 52 52 53 49 50 50 51 52
50 49 49 49 49 51 48 49 50 52 53 53 53 54 54 50 51 50 48 48 49 51 50 48 49 48 48 47 47 46 47 47 47 46 44 47 47 44 45 47 49 48 48
50 49 49 49 48 49 48 48 48 52 51 52 52 52 52 51 50 50 47 46 46 45 45 47 43 41 41 41 42 43 42 43 43 41 42 42 43 41 43 47 46 46 46
50 50 49 49 49 48 47 47 46 49 49 48 48 49 48 50 50 49 46 44 43 43 43 44 43 41 42 41 41 42 41 41 41 40 39 38 40 39 41 42 44 44 44
49 49 48 48 48 47 45 46 47 47 45 46 46 46 47 47 45 46 44 41 41 40 42 42 41 40 40 41 40 40 36 36 36 35 36 36 36 36 37 38 40 42 42
47 47 47 47 44 47 45 45 46 49 46 46 46 45 43 43 44 44 46 45 42 39 39 38 38 39 40 40 39 39 37 34 35 35 37 36 36 35 35 39 38 38 39